Location: Newark
(54.3386°S, 169.8415°W)
Time: 17:08:47
(UTC+00:00)

N. Korean satellite - Visible Passes

Search period start: 18 October 2019 00:00
Search period end: 28 October 2019 00:00
Orbit: 455 x 508 km, 97.2° (Epoch: 18 October)

Date Brightness Start Highest point End Pass type
(mag) Time Alt. Az. Time Alt. Az. Time Alt. Az.
19 Oct 9.7 15:07:46 10° ENE 15:10:46 23° ESE 15:13:46 10° S visible
20 Oct 10.4 07:08:16 10° SSW 07:09:51 12° SW 07:11:26 10° W visible
20 Oct 10.3 14:43:37 10° E 14:45:42 14° ESE 14:47:49 10° SSE visible
23 Oct 10.0 15:00:16 10° ENE 15:03:01 20° ESE 15:05:47 10° SSE visible
24 Oct 10.3 07:00:09 10° SSW 07:02:06 14° WSW 07:04:03 10° W visible
24 Oct 10.4 14:36:21 10° E 14:37:59 12° SE 14:39:36 10° SSE visible
27 Oct 10.1 14:52:47 10° E 14:55:14 17° ESE 14:57:41 10° SSE visible
